Weather 🌤️

Recent data

Temperatures

Wind

Pressure

Humidity & Precipitation

Last data
obsTime qcStatus tempAvg heatindexAvg windspeedAvg windgustAvg winddirAvg pressureAvg humidityAvg precipRate precipTotal
2026-09-06 23:34:56 0 28.3 28.4 1.3 5 227 999.49 46 0 0
2026-09-06 23:29:48 0 28.3 28.5 0 5 227 999.32 46 0 0
2026-09-06 23:24:56 0 28.3 28.4 0 5 208 999.15 46 0 0
2026-09-06 23:19:56 0 28.3 28.5 0 5 196 999.15 46 0 0
2026-09-06 23:14:56 0 28.5 28.6 0 5 193 999.32 46 0 0
2026-09-06 23:09:56 0 28.4 28.6 0.5 5 219 999.49 46 0 0
2026-09-06 23:04:56 0 28.5 28.6 1.4 5 219 999.49 45.6 0 0
2026-09-06 23:04:48 0 28.5 28.6 1.5 5 219 999.49 45.6 0 0
2026-09-06 22:59:48 0 28.5 28.6 1.8 5 232 999.15 45.2 0 0
2026-09-06 22:54:56 0 28.6 28.7 0.3 5 210 999.32 45 0 0
2026-09-06 22:49:56 0 28.7 28.8 2.3 5 216 999.15 45 0 0
2026-09-06 22:44:56 0 28.8 28.8 3.2 4 219 999.32 45 0 0

Hourly data

Temperatures

Wind

Pressure

Humidity & Precipitation

Last data
obsTime qcStatus tempAvg heatindexAvg windspeedAvg windgustAvg winddirAvg pressureAvg humidityAvg precipRate precipTotal
2026-09-06 23:59:56 0 28.3 28.4 0.7 4.6 225 999.32 46.2 0 0
2026-09-06 22:59:48 0 28.9 29 1.2 5.3 222 999.32 45 0 0
2026-09-06 21:59:56 0 29.8 30 2.5 5.7 226 998.82 43.9 0 0
2026-09-06 20:59:56 1 30.9 30.9 0.9 3.4 216 998.31 41.5 0 0
2026-09-06 19:59:56 1 31.8 31.9 0.8 6.4 219 997.97 39.4 0 0
2026-09-06 18:59:56 1 32.6 32.7 2.6 7.2 237 997.63 37.6 0 0
2026-09-06 17:59:56 1 32.4 32.5 2 7.3 220 997.63 37.9 0 0
2026-09-06 16:59:56 1 31.7 31.7 1.7 6.3 186 998.48 38.4 0 0
2026-09-06 15:59:56 1 31 31.2 2.2 8.6 187 998.82 41.3 0 0
2026-09-06 14:59:56 0 30.1 30.4 2.6 8.1 171 999.32 44.9 0 0
2026-09-06 13:59:56 1 28.7 29.5 3.2 7.6 192 1000 52 0 0
2026-09-06 12:59:47 1 26.7 27.4 2.1 6.1 199 1000.85 57.1 0 0
2026-09-06 11:59:56 1 24.7 24.8 2.1 6 180 1001.53 60.1 0 0
2026-09-06 10:59:56 1 22.8 22.8 1.5 4 196 1002.03 62.8 0 0
2026-09-06 09:59:56 1 21.1 21 1 5.2 206 1002.37 64.6 0 0
2026-09-06 08:59:48 0 20.5 20.5 2.5 5.5 209 1002.54 64.6 0 0
2026-09-06 07:59:56 0 20.6 20.6 0.7 2.6 202 1002.37 63.7 0 0
2026-09-06 06:59:56 0 21.3 21.1 0 0.7 196 1002.2 62.4 0 0
2026-09-06 05:59:56 0 21.9 21.7 0 1.7 195 1002.2 60.6 0 0
2026-09-06 04:59:56 0 22.4 22.3 0.3 2.2 206 1002.2 59.1 0 0
2026-09-06 03:59:56 0 23.1 22.9 0.3 3.9 214 1002.37 57.5 0 0
2026-09-06 02:59:56 0 23.6 23.5 1.6 6.6 220 1002.54 56.1 0 0
2026-09-06 01:59:56 0 24.2 24.1 2.4 6.7 223 1002.54 55.1 0 0
2026-09-06 00:59:56 0 24.6 24.5 2.8 7.8 225 1002.71 54.9 0 0